Skip Page Navigation
NASA JPL Caltech
NASA Logo - Jet Propulsion Laboratory + View the NASA Portal
+ Center for Near-Earth Object Studies
JPL Home Earth Solar System Stars & Galaxies Technology
JPL Solar System Dynamics
BODIES ORBITS EPHEMERIDES TOOLS PHYSICAL DATA DISCOVERY FAQ SITE MAP
IMPORTANT: The SSD Announcement email list is now available. Major changes are coming in the near future, including possible hostname and/or URL changes. To be notified of such changes, subscribe to this email list.

Please visit this page for more details.


JPL Small-Body Database Browser
Search: [ help ]  
214733 (2006 TB31)
Classification: Main-belt Asteroid          SPK-ID: 2214733
Ephemeris | Orbit Diagram | Orbital Elements | Mission Design | Physical Parameters | Discovery Circumstances | Close-Approach Data ]

[ show orbit diagram ]
Orbital Elements at Epoch 2458600.5 (2019-Apr-27.0) TDB
Reference: JPL 14 (heliocentric ecliptic J2000)
 Element Value Uncertainty (1-sigma)   Units 
e .0744670302707848 7.2607e-08  
a 3.159375518631435 3.6157e-08 au
q 2.924106206248732 2.32e-07 au
i 10.7479868358859 8.25e-06 deg
node 211.487025793813 2.8592e-05 deg
peri 207.4055499373395 4.9214e-05 deg
M 61.79448125872891 4.2603e-05 deg
tp 2458248.415026969456
(2018-May-09.91502697)
0.00024039 TDB
period 2051.163594371811
5.62
3.5211e-05
9.64e-08
d
yr
n .1755101353143183 3.0129e-09 deg/d
Q 3.394644831014139 3.8849e-08 au
  Orbit Determination Parameters
   # obs. used (total)      315  
   data-arc span      8473 days (23.20 yr)  
   first obs. used      1995-11-16  
   last obs. used      2019-01-27  
   planetary ephem.      DE431  
   SB-pert. ephem.      SB431-N16  
   condition code      0  
   norm. resid. RMS      .60482  
   source      ORB  
   producer      Otto Matic  
   solution date      2019-Jul-14 08:12:42  

Additional Information
 Earth MOID = 1.93935 au 
 Jupiter MOID = 1.99052 au 
 T_jup = 3.174 
[ show covariance matrix ]

Ephemeris | Orbit Diagram | Orbital Elements | Mission Design | Physical Parameters | Discovery Circumstances | Close-Approach Data ]

Physical Parameter Table
Parameter Symbol Value Units Sigma Reference Notes
absolute magnitude H 15.0   n/a MPO437027  

214733 (2006 TB31)          Discovered 2006-Oct-12 by Spacewatch at Kitt Peak
Reference: 20090509/Numbers.arcLast Updated: 2009-05-11

[ show close-approach data ]
Alternate Designations
 2006 TB31 = 1995 WE13 
Ephemeris | Orbit Diagram | Orbital Elements | Mission Design | Physical Parameters | Discovery Circumstances | Close-Approach Data ]
ABOUT SSD CREDITS/AWARDS PRIVACY/COPYRIGHT GLOSSARY LINKS
FirstGov 2019-Dec-07 20:15 UT
(server date/time)  
NASA Home Page
Site Manager:   Ryan S. Park
Webmaster  Alan B. Chamberlin